RH
37 35 33 32 32 31 31 32 34 40 44 45 43 41 40 39 40 44 42 40 37 33 35 38 35 36 43 50 48 43 43 44 41 42 45 44 43 40 39 38 37 36 35 34 33 32 31 30 29 29 28 27 26 25 24 24 24 25 26 29 32 35 37 38 39 40 40 40 39 39 41 43 44 44 44 44 43 42 41 41 42 45 47 50 52 54
43 42 44 42 38 35 33 34 36 39 43 44 44 43 42 41 42 44 42 41 38 33 34 36 32 34 42 47 45 43 46 45 42 43 44 44 43 42 41 41 42 41 40 38 36 35 33 31 30 29 27 26 25 24 22 21 21 22 24 25 26 28 32 36 39 41 41 40 40 39 40 43 45 47 47 48 48 48 48 47 46 46 48 50 52 53
44 47 53 52 48 47 46 46 45 44 44 45 46 44 42 43 42 41 42 41 38 35 33 32 28 30 43 49 45 47 50 48 45 46 47 47 46 46 46 46 45 44 42 41 39 37 35 33 32 30 28 27 25 24 22 20 20 20 20 20 21 23 25 29 35 41 44 43 42 41 40 41 44 47 49 50 51 52 53 53 53 51 50 49 50 52
46 51 57 53 52 55 57 59 56 52 50 49 47 43 42 44 40 37 40 39 36 34 31 29 23 25 45 53 48 51 54 50 49 50 50 50 50 49 48 47 45 43 40 38 36 33 32 30 29 27 26 24 23 22 21 21 21 21 20 19 19 21 23 25 28 34 42 45 45 44 43 43 43 44 48 52 54 55 55 55 56 56 56 55 54 53
49 57 60 54 56 59 62 64 61 55 52 48 45 42 41 42 38 36 39 37 34 32 28 26 19 20 40 50 50 53 53 51 52 52 52 51 50 48 45 42 38 36 34 32 30 28 27 26 25 24 23 22 22 21 20 21 23 21 20 20 20 23 25 25 25 27 33 39 43 46 46 45 46 46 48 50 53 54 54 54 54 55 55 56 56 56
49 59 59 57 61 61 62 65 61 55 50 47 45 43 41 40 39 38 38 35 32 31 29 27 21 19 28 40 51 52 46 50 53 50 50 47 43 40 37 35 33 32 31 29 28 27 26 26 25 25 25 25 27 28 26 27 32 31 24 20 20 24 27 27 28 30 33 36 41 45 46 46 49 50 51 50 49 50 50 50 51 53 54 54 54 55
51 59 59 59 60 58 60 62 60 54 48 48 49 47 44 45 45 43 41 37 31 30 28 29 31 26 19 30 49 49 40 45 48 43 42 39 36 35 33 33 32 31 30 29 28 27 26 25 24 24 25 27 30 35 36 35 39 43 38 32 25 21 22 25 31 36 40 42 45 49 49 49 50 51 52 51 49 49 49 49 50 51 53 55 55 55
54 59 59 58 58 57 59 60 58 54 49 52 55 52 49 50 49 47 47 43 35 30 26 30 41 32 18 26 42 44 40 42 41 38 38 36 35 34 33 31 29 28 27 26 25 24 24 23 22 23 24 27 28 32 39 42 45 46 44 42 39 32 26 28 34 40 46 48 50 54 55 55 55 55 55 53 52 54 55 56 56 57 56 57 57 58
56 57 59 59 59 59 60 58 56 55 53 55 58 57 56 56 55 54 53 47 41 34 27 37 50 36 18 24 37 40 41 41 39 39 38 38 37 34 31 29 28 27 25 23 22 20 20 20 20 20 22 26 27 28 35 42 48 52 50 47 47 44 37 39 45 49 54 57 54 56 59 60 61 61 61 61 62 63 66 67 68 68 67 65 63 62
56 57 60 61 62 63 63 60 58 58 58 59 62 63 64 64 62 61 55 51 48 35 29 45 58 45 25 25 35 41 42 41 40 41 41 39 37 34 33 29 27 26 24 21 18 17 17 16 16 17 19 22 23 25 31 37 45 53 56 55 54 52 45 44 50 53 57 60 60 62 64 63 63 64 66 67 68 68 69 72 75 77 78 77 76 74
58 60 63 65 69 70 68 67 66 66 64 64 66 67 71 69 65 64 57 58 56 38 35 52 59 52 37 28 36 42 41 41 41 42 42 40 38 38 36 30 25 23 21 19 16 14 14 13 13 14 17 21 22 23 27 33 42 50 57 58 56 58 56 50 51 56 60 63 64 67 68 69 69 67 65 66 69 70 66 64 65 67 70 73 77 79
63 65 69 71 74 72 73 72 71 71 68 68 68 70 74 70 66 66 62 64 60 42 43 57 57 52 42 35 39 41 39 40 43 45 45 43 43 42 36 28 21 20 18 16 13 12 11 12 12 12 14 20 26 30 31 30 34 42 54 60 58 58 59 58 56 56 58 63 68 71 69 69 69 66 65 64 64 61 60 61 62 60 60 62 64 67
65 67 68 70 71 70 72 71 70 71 68 69 70 72 76 74 73 69 62 63 57 45 50 58 53 47 40 38 41 40 40 44 47 48 48 46 46 42 33 22 17 17 16 14 12 12 10 10 10 12 18 25 32 40 46 44 39 37 41 51 60 63 62 66 67 63 58 56 60 65 68 70 69 68 71 73 70 64 61 62 64 64 63 63 64 62
63 64 64 65 67 69 70 71 74 74 71 71 72 75 79 80 78 66 57 62 57 49 55 56 50 45 39 39 41 40 42 46 49 51 50 49 47 38 25 17 15 16 15 14 13 11 10 9 9 11 20 32 39 44 53 60 60 54 46 45 53 62 68 72 76 75 69 59 55 56 60 69 78 82 86 89 92 92 87 81 74 69 65 67 73 76
61 62 64 66 67 69 73 75 77 76 74 74 72 74 73 71 76 71 64 67 63 55 53 52 51 46 40 40 40 40 43 47 52 54 52 49 41 29 17 13 14 14 14 14 12 11 10 8 9 10 15 28 38 42 49 63 74 74 63 51 48 56 70 81 87 88 84 83 81 65 47 49 61 68 73 75 76 78 78 76 72 65 60 60 68 77
63 62 64 71 73 75 77 77 76 74 73 72 69 68 64 65 80 87 79 73 71 65 54 48 50 47 42 42 42 45 48 52 56 56 52 45 30 18 11 10 12 12 12 12 10 10 9 8 8 9 11 18 26 32 37 48 62 69 60 44 38 42 50 63 78 89 94 95 86 61 41 38 41 42 45 46 46 47 50 53 56 56 55 55 58 61
66 65 67 75 80 80 80 78 76 73 72 71 67 65 70 78 89 96 92 82 80 76 58 47 50 51 50 47 45 52 57 58 59 54 43 29 15 10 9 8 10 10 11 11 10 9 8 8 8 7 9 12 17 24 27 29 33 40 40 33 32 36 37 40 47 56 61 58 46 35 32 33 32 30 30 31 34 38 42 46 48 48 48 47 48 49
73 75 74 77 80 78 77 75 73 71 70 69 66 67 81 93 95 99 100 90 84 82 67 54 53 54 57 54 52 60 64 60 54 41 25 15 9 8 8 9 10 10 11 11 9 9 9 10 12 13 16 19 21 24 28 30 31 33 35 33 32 32 31 29 28 28 28 27 26 27 29 29 28 28 28 28 30 33 36 40 42 42 41 39 39 39
79 79 75 74 75 73 70 68 66 66 67 68 73 81 90 96 97 98 99 90 86 88 81 70 63 58 60 62 62 63 59 48 36 22 12 9 7 7 9 12 11 11 12 12 12 13 14 15 18 24 31 35 39 45 50 56 64 69 71 70 67 62 51 39 31 27 25 23 24 24 23 24 26 27 27 24 20 18 21 27 33 37 38 37 36 33
83 80 73 69 69 68 67 64 63 68 73 78 87 93 94 94 96 97 97 94 95 98 93 84 76 65 59 59 58 51 38 26 18 11 9 9 10 12 14 15 15 16 17 16 17 20 20 22 30 41 52 58 64 73 81 86 91 95 97 96 95 92 83 71 60 52 45 39 36 33 33 35 39 43 45 40 32 24 20 21 26 29 28 27 27 25
81 76 69 65 63 63 66 67 69 78 88 92 94 96 95 95 97 98 98 96 91 84 75 69 63 51 41 37 34 26 17 11 9 8 9 12 14 17 18 20 23 25 24 25 28 31 30 32 40 49 57 60 59 61 69 78 85 90 93 93 93 92 92 90 88 84 78 73 71 70 70 69 68 67 66 65 62 56 47 40 38 37 34 31 26 22
78 79 73 65 59 62 72 81 86 93 99 100 98 97 96 98 100 99 93 83 68 51 44 49 47 31 19 16 14 11 9 8 9 10 12 16 21 26 31 34 32 29 28 30 33 33 32 33 36 40 46 49 51 54 60 70 79 84 86 87 86 87 89 93 97 100 99 95 91 88 85 78 68 55 47 46 48 48 44 36 29 26 25 24 21 16
81 88 85 73 66 73 85 92 95 99 101 100 100 100 100 100 98 87 74 62 45 28 26 38 38 20 8 9 8 7 7 7 9 13 16 19 24 28 33 37 40 42 43 44 45 46 47 46 44 44 48 49 50 53 59 68 77 83 86 87 85 85 85 87 92 97 98 97 96 94 86 72 53 34 22 18 19 20 19 15 12 10 10 10 10 9
94 99 99 91 88 93 98 99 100 101 101 101 100 98 94 86 73 57 46 40 30 19 20 30 28 13 6 8 7 7 13 15 16 20 25 29 35 42 49 53 53 52 50 47 47 46 43 40 36 37 43 47 46 46 49 56 66 76 84 88 89 89 90 91 96 100 101 100 98 90 72 50 30 16 10 10 9 9 9 8 8 8 8 8 8 7
98 99 100 99 99 97 91 90 94 94 91 86 79 70 61 48 35 26 21 21 21 16 14 19 18 9 6 8 8 12 21 25 22 22 25 30 38 46 51 50 41 31 27 27 29 32 36 41 43 45 51 56 55 54 56 62 70 78 86 92 97 99 100 99 93 85 77 67 56 44 31 19 12 9 9 9 9 9 9 8 8 8 8 8 7 7
102 102 100 100 102 94 77 68 71 71 63 51 40 31 24 18 14 11 9 11 15 12 8 10 10 7 8 9 8 13 19 20 19 18 18 19 22 24 24 23 20 17 17 18 22 29 38 46 46 41 41 41 39 38 42 48 55 59 64 71 77 78 74 64 50 36 27 21 15 12 11 10 10 10 9 9 9 9 8 8 8 8 8 8 8 8
91 85 76 72 70 60 48 41 37 32 26 20 15 12 10 9 8 9 9 9 11 10 9 9 9 9 11 10 12 16 17 17 17 16 16 15 15 15 15 15 15 15 14 14 17 20 21 22 20 18 17 16 16 15 16 18 20 21 23 26 28 28 25 20 15 12 11 11 11 11 11 11 11 10 11 11 11 10 10 10 10 10 10 10 10 10
81 70 52 43 37 26 21 20 14 10 10 10 10 9 10 10 9 9 10 10 10 11 10 10 11 15 15 14 16 17 16 16 15 15 15 14 14 14 14 14 14 14 14 14 14 13 13 13 12 12 13 12 13 13 13 13 13 13 13 13 13 13 13 13 13 13 13 13 13 13 13 13 13 13 13 12 12 11 11 11 10 10 10 9 9 8
67 58 38 26 19 13 11 11 9 10 11 11 11 12 12 11 11 11 11 11 12 13 13 13 15 18 18 16 17 16 15 15 14 14 15 14 14 14 14 14 14 14 14 14 14 14 14 14 14 15 15 16 16 16 16 16 16 16 16 15 16 15 15 16 16 16 16 15 15 15 14 14 13 12 12 11 11 10 9 9 9 8 8 7 7 7
26 22 15 11 10 11 12 12 13 14 14 14 14 14 13 13 13 12 12 13 14 17 18 17 18 18 17 17 16 15 15 15 14 15 14 14 15 14 14 15 15 15 16 16 17 17 17 17 18 19 18 18 19 18 19 19 19 19 19 19 19 19 19 18 18 17 17 15 14 14 13 12 11 11 10 10 10 10 10 11 11 11 11 12 12 12
11 11 11 13 14 15 15 15 16 16 16 16 16 15 15 15 14 14 14 15 17 19 20 19 18 18 17 16 16 15 15 15 15 15 15 15 15 15 16 16 16 18 19 19 19 20 21 21 21 21 21 22 22 23 23 23 22 22 22 21 20 19 18 17 16 15 14 12 12 11 11 11 12 13 14 16 17 18 18 18 19 20 21 21 22 23
14 14 15 16 17 18 18 18 19 19 18 18 17 16 16 16 16 17 17 18 19 19 19 18 17 17 16 16 16 16 16 15 15 15 15 16 16 16 17 18 19 20 20 21 23 23 23 24 24 25 26 26 27 27 26 24 23 22 21 19 18 16 14 13 12 12 11 11 12 13 14 17 19 20 22 24 24 25 26 27 28 28 29 30 31 31
17 18 19 20 21 21 21 21 21 21 21 19 16 16 18 20 20 20 19 20 20 19 18 18 17 17 17 16 16 16 16 16 16 16 16 17 18 19 19 19 20 21 22 23 24 24 25 26 26 27 28 27 26 25 23 21 19 17 15 14 12 11 11 11 11 13 14 16 18 20 21 22 23 25 26 27 28 29 30 31 31 32 33 33 34 34
20 21 21 23 23 22 23 24 24 25 22 18 18 20 22 23 22 22 21 21 20 19 18 17 17 17 17 17 17 17 17 17 17 17 18 19 20 20 20 21 21 23 24 25 26 26 27 27 27 27 26 25 24 21 19 16 14 12 11 10 10 11 12 14 16 18 19 21 23 25 26 27 28 29 29 30 31 31 32 33 34 34 34 33 33 32
23 25 25 26 26 26 27 27 28 27 23 21 23 25 25 25 24 23 21 20 20 19 18 18 18 18 18 18 18 17 18 18 18 19 21 22 22 22 22 23 25 26 26 26 26 27 27 27 27 25 23 21 18 15 13 11 10 10 11 12 15 17 18 20 22 23 26 28 30 32 33 34 34 34 34 34 35 35 35 35 34 33 32 30 29 27
27 28 28 30 31 31 32 31 31 29 27 26 27 26 26 25 23 22 21 21 20 19 19 19 18 18 19 18 18 19 19 20 21 22 23 24 25 25 25 26 26 26 27 27 27 27 27 26 24 21 17 14 12 11 11 12 15 18 20 23 25 27 28 30 31 33 35 37 38 40 40 40 39 38 37 36 34 33 32 31 31 30 29 27 27 27
32 33 33 35 36 35 34 33 32 31 29 28 27 26 25 23 22 21 20 20 20 20 19 20 19 20 20 20 21 22 23 24 25 25 28 29 28 27 26 26 26 27 28 29 28 27 25 21 17 14 12 11 13 15 18 21 24 27 30 34 36 38 40 41 42 43 44 45 45 45 43 40 37 35 33 31 30 30 30 30 30 30 29 29 29 28
36 37 37 37 37 36 34 33 32 31 30 28 26 25 23 22 21 21 20 21 21 20 21 22 22 23 23 24 25 26 27 28 27 28 32 32 28 26 27 28 30 31 31 29 26 22 18 14 12 13 15 18 22 25 28 31 34 38 42 45 47 49 50 50 50 50 48 46 43 39 36 33 30 28 28 28 29 30 31 32 31 30 30 29 27 26
39 39 39 38 36 35 33 31 30 29 29 28 26 23 22 21 21 23 24 22 21 22 26 27 27 27 28 30 31 30 30 28 26 29 32 31 29 31 34 34 35 33 28 24 19 14 13 14 16 20 25 29 32 35 39 42 45 48 51 52 54 54 53 52 50 46 43 39 35 32 30 28 27 27 28 29 30 31 30 30 29 28 27 26 24 23
41 40 38 36 34 33 31 29 27 27 27 25 23 22 23 23 24 26 25 24 26 30 31 31 31 32 33 33 32 30 29 29 28 29 31 32 34 37 37 35 31 26 20 16 14 14 18 23 27 31 35 38 40 43 46 49 51 53 53 53 52 50 49 47 43 39 36 33 31 29 28 27 27 28 28 29 29 28 28 28 27 26 25 24 21 18
40 38 36 34 33 31 28 27 26 25 23 23 24 26 27 27 27 26 27 34 39 37 34 33 35 35 35 34 33 31 30 31 32 33 35 37 38 37 34 29 22 17 14 14 18 25 30 34 37 39 39 41 43 46 49 50 50 50 50 50 48 47 45 41 38 36 34 31 29 28 27 27 27 27 28 29 28 27 28 28 26 25 23 19 16 14
38 36 34 32 30 28 26 26 26 24 22 25 30 32 29 29 30 32 36 42 42 38 38 40 38 36 36 37 36 35 35 37 38 38 38 38 35 31 25 18 14 13 15 21 31 39 43 44 44 43 43 45 47 49 49 49 49 49 50 49 48 46 42 39 37 34 31 30 29 28 28 28 28 29 30 29 28 29 29 27 26 23 18 15 13 11
36 34 31 30 28 27 27 26 25 25 25 27 30 32 31 33 36 40 44 46 45 47 50 49 44 42 44 45 44 42 41 40 39 38 36 32 27 21 16 13 14 17 24 35 46 50 51 50 48 47 48 49 51 51 51 50 50 51 51 50 48 44 41 38 35 32 30 30 30 30 31 30 30 31 31 30 30 30 28 26 23 18 15 14 11 9
33 31 30 29 28 27 27 27 26 26 26 28 30 33 37 41 44 49 54 58 60 63 62 58 53 50 50 50 47 44 41 38 36 33 29 24 18 14 13 14 18 24 36 48 55 55 54 52 50 50 51 52 53 53 52 52 53 52 51 49 46 42 39 36 33 32 33 34 33 33 33 32 33 33 32 32 32 29 26 24 19 15 15 13 10 17
31 30 28 27 26 27 27 26 26 27 29 32 35 38 45 54 62 66 68 69 72 73 69 64 58 53 51 49 45 42 39 35 31 26 21 17 16 16 17 19 26 38 51 59 59 58 56 54 53 53 54 55 56 55 54 53 53 51 50 48 44 40 37 35 35 36 36 36 35 34 34 34 35 35 35 35 32 28 25 21 17 16 15 11 19 36
30 28 27 26 26 27 27 27 30 31 32 35 44 55 68 79 83 82 80 79 79 77 71 64 59 54 51 47 43 39 35 29 24 20 17 17 18 19 23 30 42 57 66 67 64 62 59 58 58 59 60 60 58 56 54 53 52 52 51 48 43 40 38 38 39 39 38 37 36 36 36 37 37 38 39 38 33 29 26 21 18 17 13 18 36 48
30 28 29 29 28 29 31 32 32 34 40 53 71 86 93 92 88 85 86 86 82 75 68 62 57 53 48 43 38 33 28 24 22 20 20 21 23 27 34 45 56 67 71 69 67 65 64 64 63 62 61 60 57 55 54 53 53 54 52 47 43 41 41 42 42 40 39 38 38 38 39 39 40 42 42 39 35 31 27 23 21 15 16 33 49 41
32 32 31 30 30 33 34 33 39 53 71 87 99 104 101 94 88 85 84 81 75 69 62 57 51 46 42 37 34 30 28 27 27 27 29 33 37 41 48 55 62 68 70 69 69 69 68 67 65 63 61 59 57 56 56 56 56 53 50 46 45 44 45 44 42 40 41 40 40 41 41 42 44 45 41 39 37 32 28 26 20 17 30 49 47 27
33 31 30 30 32 36 41 51 69 89 100 103 103 100 97 91 85 81 77 72 65 59 54 50 46 44 41 38 37 37 35 34 36 41 45 48 50 52 56 60 64 66 68 69 69 70 70 69 67 66 64 62 61 60 58 57 55 52 50 50 49 48 47 45 43 43 43 42 41 41 41 45 48 46 43 41 38 32 29 24 19 26 45 52 35 19
33 31 32 38 42 49 63 81 97 105 106 103 99 92 86 80 75 70 66 60 54 52 51 50 48 46 43 42 43 45 46 47 52 58 58 54 54 56 59 62 64 64 66 68 69 71 74 75 74 73 70 66 62 59 56 56 56 55 55 55 53 52 50 47 46 45 43 42 41 40 43 48 50 48 47 43 36 30 25 22 30 48 55 40 25 23
40 38 41 52 63 74 87 99 104 103 101 97 88 77 71 66 60 55 52 49 48 49 50 50 49 46 45 47 50 54 57 60 64 64 60 56 58 61 64 66 67 68 70 71 72 73 74 74 73 72 68 63 59 56 57 59 60 59 59 58 57 56 53 50 48 44 41 40 40 42 47 51 50 49 48 41 33 28 20 23 48 68 55 31 25 29
Wind_Speed
37 38 37 33 33 36 37 37 38 38 38 40 40 41 41 40 38 37 38 38 39 39 37 36 37 36 34 32 33 35 34 32 33 32 29 28 28 29 29 29 30 30 31 32 32 32 33 33 33 33 32 32 32 32 32 32 32 31 30 30 31 32 33 34 35 36 37 38 38 38 37 36 36 37 37 38 38 39 40 41 41 41 41 41 41 41
39 39 35 33 37 39 38 38 39 40 41 41 42 43 42 40 38 37 37 37 37 37 36 36 36 35 32 31 32 33 32 31 32 32 30 28 29 30 30 31 31 32 32 33 34 34 34 35 35 35 36 36 36 36 36 36 35 33 31 30 31 32 34 35 36 37 38 39 40 40 39 39 39 39 39 40 40 40 41 41 42 42 42 42 42 42
42 40 35 36 39 39 38 39 40 41 42 42 43 43 40 38 38 38 36 36 36 36 36 36 36 35 29 28 30 30 30 31 32 32 30 30 31 31 32 32 33 33 34 34 35 36 36 37 37 38 38 39 40 40 40 40 38 36 35 35 34 34 34 36 37 38 38 39 41 41 42 42 42 41 41 41 41 42 42 42 42 42 43 43 43 43
45 41 38 39 39 39 39 39 40 41 42 42 42 40 37 36 37 37 36 36 36 36 37 37 39 37 29 28 31 30 30 33 33 33 32 33 33 33 33 34 35 37 37 38 38 39 40 41 41 42 42 43 43 43 42 41 40 40 40 40 38 37 36 36 38 39 39 40 41 42 43 44 43 43 43 42 42 42 42 42 42 42 43 43 44 44
43 39 39 40 40 40 40 39 40 41 41 41 38 37 36 36 37 36 36 37 36 37 39 40 43 40 32 31 33 32 34 35 34 34 35 35 36 36 37 37 38 40 40 41 41 42 43 44 44 44 43 43 42 42 41 40 41 42 43 43 41 39 37 37 39 41 41 42 43 44 44 43 43 43 44 44 43 43 43 43 43 43 43 43 43 44
41 37 38 40 40 40 40 38 38 39 39 38 36 35 35 35 35 36 37 38 39 40 41 43 45 43 38 36 34 35 38 37 35 36 37 38 38 38 40 40 41 43 44 44 45 46 47 46 45 43 41 39 38 37 37 38 39 41 43 43 43 42 40 40 41 42 43 44 45 46 45 44 44 44 45 45 46 46 45 45 45 46 46 46 46 45
39 36 37 39 39 39 38 36 36 38 37 35 34 34 35 35 35 36 38 39 41 43 44 45 44 44 44 42 37 37 40 38 36 38 38 39 40 42 43 43 44 46 47 47 47 47 46 45 42 40 38 36 35 35 35 37 39 41 41 41 42 43 43 43 43 44 45 46 47 47 47 46 46 46 46 47 48 48 49 50 50 51 51 51 50 50
37 36 38 37 37 37 36 35 36 37 35 33 33 34 35 35 36 38 38 40 43 44 47 47 42 44 48 45 41 42 40 38 39 40 40 41 43 45 46 47 47 48 50 50 48 46 45 43 40 38 37 36 35 35 36 39 41 43 42 41 41 43 44 45 46 46 47 48 48 48 48 48 48 49 50 51 52 53 54 55 56 56 57 57 57 56
37 36 36 36 35 34 34 35 36 36 35 34 34 35 36 37 39 39 40 43 43 46 49 44 39 44 50 47 46 46 43 42 44 44 45 46 46 48 49 49 49 48 50 51 49 47 45 44 42 40 38 38 37 37 37 40 43 46 45 44 44 45 46 47 48 48 49 50 50 51 51 51 51 52 53 55 56 57 58 58 59 59 60 61 62 62
37 35 35 35 34 33 34 35 35 35 36 36 36 37 38 39 40 40 42 43 44 47 48 41 37 44 50 50 48 47 46 47 49 49 50 50 50 51 52 52 51 49 49 51 51 50 47 45 44 42 41 41 41 40 40 41 44 47 48 47 47 48 48 49 50 51 52 52 53 54 54 54 55 55 56 57 58 59 61 61 62 62 63 63 64 65
36 35 35 34 33 34 35 34 35 36 37 37 38 39 39 40 41 41 43 42 44 48 45 39 39 44 50 52 49 48 49 50 51 51 52 53 52 52 54 55 54 51 50 51 52 51 49 47 45 44 43 43 43 43 43 43 45 48 50 51 51 51 52 52 53 54 55 56 56 57 58 58 59 60 62 63 64 65 66 67 66 66 67 67 67 68
37 36 35 35 35 35 35 35 36 37 38 39 40 40 40 41 42 43 44 43 45 47 44 41 44 47 50 52 50 50 52 53 54 53 52 52 52 53 55 56 55 53 51 50 51 51 50 49 47 45 43 43 43 45 45 45 47 49 51 54 54 55 56 56 56 57 58 60 61 62 64 65 66 67 69 71 73 74 74 73 72 71 71 71 71 71
38 37 36 35 35 35 36 37 38 38 40 41 40 40 41 42 44 44 44 45 46 47 45 46 49 51 52 51 50 51 53 54 55 54 53 53 54 56 57 56 55 53 52 50 50 51 51 50 48 46 43 42 43 45 47 48 49 50 52 54 57 58 59 61 61 60 60 62 64 66 69 71 72 73 73 73 75 77 78 78 78 77 76 74 74 73
38 37 36 36 36 37 38 38 38 39 41 41 40 40 42 43 45 46 46 47 48 47 46 49 52 54 54 52 53 53 54 55 55 54 55 55 57 58 57 55 54 52 51 50 50 51 51 51 50 48 45 44 44 46 49 51 52 52 53 55 58 60 62 64 65 65 64 65 67 69 71 73 75 76 76 77 77 78 79 81 82 82 81 79 77 76
38 38 37 37 38 39 39 38 39 40 41 41 41 42 44 45 47 48 48 50 51 49 49 52 56 57 55 54 54 55 55 56 56 56 57 58 59 60 58 55 53 51 51 50 51 51 52 52 51 51 49 48 48 48 50 53 55 55 56 57 59 61 64 67 69 70 70 70 72 74 74 74 76 77 78 79 80 80 80 81 82 83 83 82 81 80
40 41 39 39 39 39 39 39 40 40 42 43 44 46 47 47 48 50 51 52 53 53 53 55 58 58 56 55 55 56 56 57 57 58 59 60 60 60 58 55 53 52 51 51 52 52 53 54 54 54 53 53 53 54 54 56 58 60 61 62 62 63 65 68 71 73 74 74 76 76 75 74 75 76 76 77 77 78 78 78 78 79 81 82 82 82
44 43 42 40 39 39 40 40 41 43 45 47 48 49 49 49 50 52 53 52 53 56 56 55 57 57 56 56 57 57 57 58 59 59 60 60 59 57 55 54 53 52 52 52 53 53 54 55 55 56 57 57 58 58 59 60 62 64 66 66 66 66 66 68 70 72 74 75 76 75 74 73 73 74 74 74 75 75 76 77 76 77 77 79 80 82
46 45 44 42 41 42 43 44 46 47 48 49 50 50 49 50 51 51 53 54 55 58 58 56 56 57 58 59 59 59 60 60 60 60 59 58 56 54 54 53 54 54 54 54 54 55 55 56 57 58 58 59 60 60 62 63 64 66 67 68 68 68 68 68 69 70 72 73 74 74 74 73 73 74 74 75 75 76 76 78 78 78 77 77 77 78
46 46 45 46 47 47 48 49 50 49 49 48 49 49 49 50 51 51 53 55 56 59 60 58 57 57 59 61 62 62 62 61 60 60 58 56 55 54 54 54 55 55 55 56 56 56 56 57 58 59 59 60 60 61 61 62 63 63 64 65 66 67 69 70 70 70 71 72 73 74 75 76 77 78 78 78 78 79 80 81 81 81 80 79 79 79
47 48 49 50 50 51 51 52 51 49 48 48 48 49 49 50 52 53 54 56 58 60 61 62 62 61 62 64 65 64 62 61 60 59 57 56 56 55 55 55 55 56 56 57 57 58 58 59 59 59 59 59 60 60 61 62 63 64 65 67 68 70 72 73 73 73 74 74 75 75 76 77 78 79 80 80 81 81 82 83 84 84 84 84 84 85
50 52 53 53 54 54 53 52 50 48 49 49 49 50 51 52 53 55 57 58 59 62 64 66 68 68 65 65 66 65 62 61 59 58 57 57 56 56 56 56 56 56 57 58 59 59 59 60 60 61 61 63 64 66 67 68 69 70 71 72 73 74 75 75 76 76 76 76 77 77 77 77 78 79 81 82 82 82 83 84 85 86 87 88 89 89
53 54 54 55 56 55 52 50 49 49 49 50 51 52 53 54 56 58 60 61 62 65 66 66 69 69 65 64 65 63 61 60 58 56 56 55 55 54 55 55 56 57 59 60 61 61 62 62 63 65 66 68 69 71 72 73 74 75 75 76 77 78 78 78 79 79 79 79 80 80 80 80 82 84 85 86 87 88 88 89 89 90 90 90 91 92
51 52 53 54 54 52 51 52 52 52 52 53 54 55 57 59 60 62 64 65 66 67 67 66 68 69 66 63 63 62 61 59 57 55 54 54 54 54 55 56 57 58 59 60 61 61 62 64 66 68 69 71 72 73 75 76 77 78 79 79 80 80 81 81 81 82 83 83 83 83 84 86 88 90 91 91 91 91 92 92 92 92 91 91 91 91
50 53 54 54 52 51 52 54 56 57 57 58 59 60 62 63 64 64 66 67 67 67 66 65 67 69 67 64 62 61 59 57 55 54 53 53 53 53 54 56 57 58 60 61 62 64 66 68 69 71 72 73 74 75 76 78 78 79 80 81 81 82 83 84 84 85 86 87 88 89 91 93 93 93 93 92 92 93 93 93 93 93 93 93 93 93
51 54 55 54 54 54 55 59 61 63 63 64 65 66 66 66 66 67 67 66 66 67 66 66 68 69 66 63 62 60 58 55 54 55 54 53 54 54 56 58 60 62 63 64 66 67 69 70 71 73 74 75 76 77 78 79 80 81 82 84 85 86 87 88 89 91 92 93 94 95 95 96 95 95 94 94 94 94 95 95 96 96 96 96 96 97
54 57 58 59 60 61 63 64 66 66 67 68 68 68 67 67 67 68 67 66 67 68 68 68 69 68 65 63 63 61 59 57 57 57 56 56 57 59 60 62 63 64 65 66 67 69 70 71 73 74 76 77 78 79 80 81 82 84 85 87 88 90 91 92 93 94 94 95 96 96 96 96 96 96 97 97 97 97 98 98 98 99 99 100 100 101
59 61 62 64 66 66 67 67 67 67 68 68 67 66 65 66 66 67 69 69 68 69 70 68 68 67 64 62 61 60 59 58 58 58 59 60 60 61 62 63 64 65 66 67 68 70 71 73 74 76 77 78 79 80 81 82 83 85 86 88 89 90 91 92 93 93 94 95 96 96 97 97 98 98 99 99 100 100 101 101 102 102 103 103 104 104
61 63 64 65 67 67 67 68 68 66 66 66 65 63 62 63 65 67 69 68 67 69 70 67 64 66 64 60 58 58 58 58 59 60 61 62 62 63 64 65 66 67 67 68 69 71 72 73 74 75 77 78 78 80 81 82 84 85 86 87 89 90 91 92 93 94 95 96 96 97 98 99 100 100 100 101 101 102 102 102 103 103 103 103 103 103
63 66 66 66 67 67 66 67 66 65 65 65 63 62 60 60 64 67 68 66 66 69 70 65 63 64 63 60 58 58 58 59 60 61 61 61 61 62 63 64 65 66 68 69 70 71 72 74 75 76 77 79 80 82 83 84 85 86 88 89 90 91 92 93 94 95 96 97 97 98 99 100 100 100 100 100 99 99 99 98 97 97 97 97 97 97
65 67 67 67 67 66 65 65 64 64 65 64 63 61 61 62 64 66 65 64 65 67 66 63 62 63 62 60 58 57 59 61 61 60 60 60 61 62 63 63 65 66 68 70 71 73 74 75 76 77 79 80 82 83 84 85 86 87 89 90 91 92 93 94 94 95 96 96 96 96 96 96 95 94 93 92 91 90 89 88 88 87 87 87 87 87
66 67 68 68 67 67 66 65 64 64 65 64 63 62 62 63 63 62 62 63 64 65 63 61 63 63 59 57 58 59 60 60 60 60 61 61 62 63 63 65 66 68 70 71 73 74 75 76 77 78 80 81 83 84 85 86 87 88 89 90 91 92 93 93 93 93 92 92 91 90 89 87 85 83 82 80 79 79 78 78 78 78 78 77 77 77
67 68 68 67 67 67 65 64 64 64 64 65 66 65 63 62 61 60 61 62 63 63 64 64 65 63 58 57 60 61 60 60 60 62 63 63 63 64 65 66 68 70 71 73 74 75 76 77 79 80 81 82 84 85 86 86 87 88 88 89 89 89 89 89 88 87 86 85 83 81 79 77 75 74 73 73 72 72 72 72 72 72 72 71 71 72
66 66 66 66 66 66 65 64 64 63 66 69 68 64 59 58 58 60 61 61 61 63 64 65 64 62 60 61 62 62 61 62 63 64 65 65 65 66 67 69 70 72 73 74 75 76 77 79 80 81 82 83 84 84 85 85 85 85 86 86 85 85 84 83 81 79 77 76 74 73 72 71 70 70 70 70 69 69 69 69 69 69 69 69 69 70
65 65 64 65 65 66 65 64 63 65 70 71 65 59 56 57 58 61 61 60 60 62 63 64 64 64 64 64 63 63 63 64 65 65 65 66 67 68 69 71 72 73 75 76 77 77 78 79 80 81 82 83 84 84 84 83 83 82 82 81 80 79 77 76 74 73 71 70 69 69 68 68 68 68 68 68 68 68 68 68 68 69 70 71 71 72
64 64 64 64 64 65 64 63 65 69 70 65 59 57 57 58 58 60 61 60 60 62 63 64 65 65 65 64 64 65 65 65 66 66 67 68 68 69 70 72 73 75 76 77 78 78 79 80 81 81 82 82 82 81 81 80 79 77 76 74 73 72 71 70 70 69 68 68 67 67 66 66 67 67 67 67 68 68 69 70 71 72 73 73 74 74
63 63 63 63 64 65 65 65 68 70 66 60 59 60 58 57 59 61 62 61 60 62 64 64 64 64 64 65 66 66 66 67 67 68 68 69 70 70 72 74 76 77 78 78 79 79 79 80 80 80 79 78 77 76 75 73 71 69 68 67 66 66 66 66 66 65 65 65 65 65 66 66 67 68 68 69 70 71 72 73 73 74 74 74 73 73
62 62 62 62 63 64 65 66 67 68 66 61 58 57 55 57 60 62 64 62 59 61 64 64 64 64 65 66 67 67 67 68 68 68 70 71 72 74 75 77 78 78 79 79 79 79 78 78 77 76 74 72 70 68 66 65 64 63 63 63 63 63 63 63 63 63 63 64 65 66 67 68 69 70 71 71 72 72 72 72 72 73 72 72 71 71
61 61 60 61 62 62 64 66 66 68 67 60 55 54 55 58 61 62 65 64 59 60 64 64 64 65 66 67 67 67 68 69 68 69 72 74 75 76 77 78 79 79 79 78 78 76 75 74 71 69 67 64 62 61 60 60 60 60 60 60 60 61 61 61 61 62 63 64 66 68 69 70 71 71 71 71 71 71 70 70 70 70 71 71 71 71
59 59 58 59 62 61 62 65 66 67 65 59 56 57 58 60 61 63 66 65 59 59 63 64 64 65 66 67 67 68 69 70 69 70 74 77 77 78 78 78 78 78 77 76 74 71 69 66 63 61 59 58 57 57 57 57 57 57 57 58 59 59 60 61 61 63 64 65 67 68 70 70 70 70 70 69 69 69 69 69 69 70 71 72 72 71
58 58 58 59 60 60 61 64 65 65 63 59 58 58 59 60 62 64 67 65 60 59 62 64 65 65 66 68 69 69 70 71 71 73 75 77 78 78 78 77 76 75 73 70 67 64 61 58 56 55 54 54 54 54 55 55 55 55 56 57 58 59 60 61 62 63 65 66 67 68 69 69 69 68 68 68 67 68 68 69 69 70 70 71 70 69
57 58 58 59 59 59 61 63 65 64 61 59 59 59 60 62 64 64 64 62 60 61 63 64 66 67 67 69 70 70 71 72 73 75 76 76 77 77 76 75 73 70 67 63 59 56 54 53 52 52 52 52 53 53 53 53 54 55 56 57 58 59 60 61 62 64 65 66 67 68 67 67 66 66 66 66 67 67 68 69 69 69 69 68 67 65
57 58 58 59 59 60 61 62 66 65 60 57 59 61 62 64 65 63 62 62 63 65 66 66 67 68 69 70 71 71 72 73 74 75 75 76 75 75 74 72 69 64 60 56 52 50 50 50 50 51 51 52 52 52 52 53 54 55 57 58 59 59 60 61 63 64 65 66 66 65 65 64 64 64 65 66 67 67 67 68 68 68 67 65 64 62
57 58 59 59 59 60 61 63 66 66 60 58 62 65 65 66 65 63 63 65 66 67 67 68 68 68 70 71 72 73 73 74 75 75 75 75 74 72 69 66 62 58 53 49 48 48 48 49 50 51 51 52 52 53 53 54 55 56 58 59 59 60 61 62 63 64 64 64 64 63 63 63 63 64 66 66 67 67 66 66 66 66 65 63 61 57
57 57 58 58 59 61 63 65 66 65 63 64 67 67 66 66 65 64 66 67 67 68 69 69 69 70 72 73 74 74 75 74 74 74 73 72 69 66 63 59 56 52 48 46 46 47 48 49 50 51 52 53 53 54 54 55 56 57 58 59 60 60 61 62 63 63 63 62 62 62 62 63 64 65 66 66 66 65 65 64 64 63 62 60 57 51
57 56 56 58 61 63 65 67 67 66 66 68 69 67 66 65 65 66 67 68 69 69 70 71 72 73 74 75 75 75 74 73 73 71 69 66 63 60 57 54 50 47 45 45 47 47 48 50 51 52 53 53 54 55 55 56 57 58 59 59 60 61 62 62 62 62 62 62 61 62 63 63 64 64 64 65 64 63 63 63 62 61 59 56 51 46
56 56 57 60 63 65 67 68 67 66 67 68 67 66 65 64 65 66 68 69 69 70 71 73 74 74 74 73 73 73 72 71 69 67 64 61 58 55 52 49 45 44 44 46 48 49 50 51 52 53 54 55 56 56 57 58 58 58 59 60 61 61 62 62 61 61 61 61 62 62 63 63 63 63 63 63 62 62 62 61 60 58 55 51 46 43
55 56 60 63 64 67 69 68 67 66 67 66 65 65 65 64 64 66 67 68 69 70 71 72 72 70 70 70 70 69 68 66 64 61 59 56 53 50 48 46 44 44 45 47 49 50 51 53 54 55 55 56 57 58 58 59 59 59 60 61 61 62 62 61 61 61 61 62 62 62 62 62 61 61 61 61 61 60 60 60 58 55 50 45 43 42
56 58 61 64 66 68 69 67 65 66 66 65 64 63 63 62 63 65 67 68 68 69 69 69 67 66 65 65 65 64 62 60 58 55 53 51 49 48 46 45 44 44 46 47 49 50 52 53 55 56 56 57 58 59 59 60 60 60 60 61 61 61 61 61 61 61 61 61 61 61 60 60 60 60 60 59 59 59 58 57 55 51 45 43 43 43
58 61 63 65 67 68 67 64 62 63 64 63 61 60 60 61 63 65 65 65 66 66 66 64 62 61 60 59 59 58 56 54 52 50 49 48 47 46 45 44 45 45 46 48 49 51 52 53 55 56 57 58 59 59 60 60 60 60 61 61 61 60 60 60 60 61 60 60 59 59 59 59 59 59 59 58 57 57 56 54 51 45 41 41 43 43
59 61 62 65 68 69 66 61 58 59 60 58 56 57 60 62 63 64 64 64 63 62 60 58 57 56 56 55 53 52 51 48 46 46 46 46 45 45 45 45 45 46 47 48 50 51 52 54 55 56 57 58 59 59 60 60 60 60 61 60 60 60 60 60 60 59 59 58 57 57 57 56 57 57 57 56 56 55 53 50 47 43 40 40 40 41
60 61 62 67 69 67 62 57 54 55 57 56 56 58 60 61 62 63 62 60 59 57 56 55 55 53 52 49 47 46 45 44 43 45 45 45 45 45 45 46 46 47 48 49 50 52 53 54 55 56 58 59 59 59 59 59 60 60 60 60 60 60 60 59 58 57 56 56 55 54 54 54 54 55 55 55 55 53 49 43 41 41 41 40 39 40
Wind_Direction
278 278 279 283 283 279 279 280 282 282 282 283 284 287 290 291 292 291 289 288 289 289 291 292 291 292 294 294 293 292 291 290 288 287 287 288 288 288 289 290 292 292 293 293 293 293 294 295 295 296 296 297 297 296 295 294 291 289 288 287 285 284 281 278 276 274 273 272 271 270 269 268 266 265 265 264 264 264 265 266 267 267 267 267 266 265
275 275 278 280 277 276 278 280 280 280 280 281 283 287 289 290 290 288 286 286 287 288 289 289 289 290 290 291 291 291 291 289 288 287 287 286 284 284 286 288 289 289 289 288 288 287 287 287 288 289 290 291 293 294 294 294 291 287 286 286 287 285 283 280 277 273 272 271 270 269 268 267 267 266 265 265 265 264 264 264 264 265 266 266 267 266
273 274 277 275 274 276 277 277 277 277 279 281 283 286 288 288 286 285 285 285 284 285 286 288 291 292 290 290 290 290 289 288 288 288 288 287 286 286 287 288 288 288 287 287 287 286 286 286 286 285 285 286 286 287 288 289 288 286 286 287 287 286 283 280 277 273 270 269 268 268 268 267 267 267 266 266 265 265 265 265 264 264 264 265 266 267
272 274 276 274 274 275 275 274 275 276 278 280 282 283 284 283 282 283 284 284 285 287 290 293 295 296 296 292 291 290 288 288 289 291 292 292 292 292 292 292 291 291 290 290 290 290 290 290 289 288 288 288 287 287 287 286 284 283 284 287 287 285 282 280 277 274 270 268 267 265 265 265 265 266 266 265 264 264 264 265 265 265 265 264 265 266
271 274 274 274 273 273 273 273 275 276 278 278 279 280 280 280 281 284 285 286 289 292 295 296 296 297 297 292 291 291 289 289 291 293 294 294 294 295 294 294 293 292 293 294 294 294 294 294 294 293 292 292 290 289 288 284 279 280 283 285 285 283 280 277 275 274 271 269 268 264 263 262 262 262 262 261 261 261 262 263 264 264 264 264 264 265
271 273 272 272 271 271 271 273 274 276 276 276 277 278 279 280 283 285 287 290 292 293 295 295 293 295 295 290 289 289 288 289 291 293 293 294 295 295 294 294 294 294 294 295 295 295 295 296 296 296 295 293 290 285 282 276 269 271 277 280 281 278 276 274 272 270 268 267 266 264 262 260 259 258 257 256 257 258 260 261 262 263 263 263 263 263
272 272 269 268 269 270 272 274 273 273 273 275 276 277 278 280 282 283 286 289 291 292 292 290 290 293 293 290 288 286 285 288 290 291 292 293 294 294 295 296 297 298 298 297 296 296 296 296 296 295 293 290 286 280 275 269 261 262 269 271 273 274 272 270 268 265 264 263 262 260 259 257 256 255 253 252 252 254 257 259 261 262 263 264 263 263
272 269 267 268 269 270 272 272 270 271 274 275 275 276 278 280 280 281 283 285 287 289 288 287 289 292 293 291 288 286 287 289 290 289 290 291 292 294 296 299 301 301 301 300 300 299 299 299 298 296 291 287 284 279 272 266 259 260 265 266 265 268 267 265 263 261 260 260 260 258 256 255 254 253 252 252 253 255 258 260 261 261 262 263 264 264
269 267 267 268 269 269 269 268 269 272 274 275 275 277 278 278 279 280 281 282 284 285 285 287 289 290 292 292 289 290 293 294 293 293 293 294 295 298 300 303 305 303 302 301 301 300 300 300 298 295 292 287 284 280 273 268 262 260 264 265 263 264 264 261 259 258 257 257 258 258 256 255 254 254 254 254 256 259 261 262 262 262 263 263 264 264
268 269 268 268 268 267 266 267 270 272 274 276 278 278 278 278 278 278 279 280 281 282 286 289 287 286 289 291 290 292 295 295 296 297 298 299 301 304 305 305 304 302 301 300 299 299 297 296 295 292 289 285 283 280 274 269 266 263 264 266 266 264 264 262 259 257 256 256 256 257 256 256 256 257 258 258 260 262 263 264 265 265 265 265 265 265
269 269 268 268 267 265 266 269 270 272 275 278 279 279 279 278 279 278 279 279 278 282 288 287 282 282 285 288 289 292 294 294 295 297 298 300 303 305 305 304 302 300 298 297 296 296 294 293 291 288 284 281 279 277 273 268 264 263 263 265 266 264 263 262 260 259 257 257 257 256 256 257 258 260 261 263 264 265 266 267 266 266 267 266 266 266
269 268 267 267 266 267 270 271 272 274 277 278 278 278 278 278 279 277 278 278 279 284 287 283 281 281 283 286 289 291 292 293 293 294 296 299 300 302 301 300 298 296 294 292 291 291 290 289 287 286 282 278 273 270 268 266 263 262 261 262 263 263 262 260 259 259 258 259 259 258 258 259 260 262 263 265 267 269 270 270 269 269 268 268 267 267
267 267 267 268 270 273 274 275 276 277 278 277 277 278 277 277 277 277 279 279 280 284 283 281 280 280 282 285 287 288 289 290 291 293 294 296 297 297 297 295 293 292 290 289 288 287 287 287 286 285 281 275 270 265 262 260 260 260 260 261 261 262 261 259 258 257 257 259 260 260 260 260 261 263 264 264 266 268 270 271 272 273 272 270 269 268
266 268 270 272 274 275 276 277 278 277 277 276 277 277 275 275 275 278 280 279 278 280 279 278 278 279 282 285 286 286 287 287 288 290 291 292 293 294 294 292 290 289 288 286 285 285 285 286 286 284 280 274 268 265 261 258 257 258 260 261 260 260 260 259 258 257 257 259 261 263 263 262 262 263 264 264 265 265 267 269 271 273 273 273 273 272
268 270 272 274 275 275 276 276 275 274 274 275 275 274 274 275 276 277 277 275 275 276 276 276 277 279 282 284 285 286 286 287 288 289 289 290 292 293 292 289 287 285 284 283 282 283 284 284 284 282 280 275 270 267 264 260 257 257 259 261 261 260 259 258 258 258 258 259 261 265 267 266 265 264 265 265 266 266 266 266 267 269 270 271 272 273
272 272 273 273 273 273 273 272 271 272 272 273 273 274 276 277 276 274 273 273 274 274 274 276 277 280 283 283 284 285 286 287 287 287 288 289 290 289 287 286 284 283 281 281 280 281 281 281 281 280 278 276 273 270 267 264 261 260 262 264 264 262 261 259 259 259 260 261 263 267 269 268 267 267 267 268 268 268 269 268 267 266 267 267 268 269
274 274 274 272 270 269 269 269 270 271 272 273 274 275 276 275 272 271 272 272 273 273 274 276 278 280 281 282 283 284 285 285 284 285 286 286 286 285 283 282 281 280 279 278 278 278 278 278 278 278 277 276 275 273 271 270 268 266 267 268 267 265 264 262 262 262 263 264 266 268 268 268 268 269 269 270 270 270 270 269 268 267 266 266 266 267
275 274 273 271 269 269 270 271 272 272 272 274 275 275 273 271 270 270 271 272 273 273 275 276 276 278 279 281 283 284 283 283 283 283 284 284 283 282 281 281 280 279 278 277 278 277 277 278 278 278 277 276 275 274 273 273 272 270 270 270 270 269 267 267 266 266 266 267 269 269 269 268 269 270 271 271 271 271 271 270 269 268 266 265 265 265
274 274 273 272 272 272 272 273 273 273 274 274 273 271 269 268 269 270 271 273 274 274 275 275 276 277 279 281 284 284 283 283 283 283 283 283 282 281 280 278 278 278 278 279 279 279 279 280 280 279 278 277 277 277 276 274 273 272 272 271 271 271 271 271 270 269 269 270 270 271 271 271 271 272 272 272 272 273 273 273 271 270 269 268 267 267
275 275 275 275 275 275 274 274 275 276 276 273 271 269 268 268 269 270 271 272 274 274 276 277 278 278 280 282 283 283 282 283 283 283 283 283 282 281 279 278 278 278 279 279 280 279 279 279 279 278 277 276 276 275 274 272 271 270 270 270 271 272 273 273 273 272 272 272 272 272 272 273 274 274 274 274 274 274 274 273 273 272 272 273 273 273
278 278 278 279 278 277 277 278 278 277 274 271 270 270 270 269 269 270 271 273 277 280 281 282 281 280 281 283 282 283 284 284 284 284 284 283 281 280 278 277 277 277 278 278 278 277 278 278 277 276 275 275 275 274 272 271 270 270 270 271 272 273 274 274 274 274 273 273 273 273 273 273 274 274 275 275 275 274 274 274 274 273 273 273 273 274
281 280 280 280 280 280 279 278 276 273 270 269 268 268 269 269 270 274 276 278 283 284 284 283 282 282 284 284 283 284 284 284 283 282 281 279 278 277 276 275 275 275 275 275 276 276 276 276 275 275 275 275 275 276 275 274 273 273 273 273 274 275 275 275 276 276 276 275 275 274 274 274 275 277 277 277 277 276 277 277 277 276 275 274 274 274
279 277 276 276 277 276 275 273 272 269 267 266 266 268 271 273 276 279 282 283 283 282 282 281 280 283 286 284 284 285 284 283 281 279 277 275 275 274 273 272 272 272 273 273 273 273 273 274 274 274 274 274 275 275 275 275 274 274 274 275 275 276 277 277 278 278 278 278 278 278 278 279 279 280 280 279 279 278 278 278 278 278 277 276 276 275
275 270 268 269 269 268 268 269 269 269 269 270 271 273 275 278 280 282 282 283 281 279 280 278 278 283 286 285 285 285 282 281 279 276 274 273 272 271 270 269 270 271 273 273 272 272 273 274 274 275 275 275 275 276 276 276 276 276 276 276 276 277 277 278 278 278 278 278 278 278 279 280 280 280 280 279 279 279 278 278 277 277 277 276 275 275
269 266 265 266 265 265 266 269 271 273 274 275 275 276 277 279 281 281 281 280 277 278 279 277 278 283 285 284 284 283 280 279 278 276 274 272 271 269 269 270 271 273 274 274 274 274 275 275 276 276 276 276 277 277 278 278 278 278 278 277 277 278 278 278 278 278 278 279 279 279 280 280 280 280 280 279 279 279 278 278 277 277 277 276 276 275
264 264 265 267 267 268 268 270 272 274 274 274 275 276 277 278 279 280 279 276 275 277 278 277 280 282 282 282 282 280 279 279 277 276 275 273 272 272 272 274 275 276 277 277 277 276 276 276 276 277 277 278 278 278 279 278 278 278 278 278 278 278 278 279 279 280 280 281 281 281 281 281 281 281 280 280 280 279 279 279 278 278 278 277 277 277
263 263 265 266 268 269 270 270 271 271 271 272 273 274 276 277 277 278 276 274 275 277 277 278 281 280 279 280 281 279 279 278 277 277 276 276 276 276 277 278 278 279 279 278 278 278 278 278 278 278 279 279 279 280 280 280 279 279 279 279 279 280 280 281 281 282 282 282 282 282 282 282 282 282 281 281 281 280 280 280 279 279 279 278 278 278
264 265 266 268 269 270 270 270 270 270 271 271 271 273 274 275 275 275 273 274 276 276 276 280 281 278 278 279 278 278 278 277 277 277 277 278 279 279 280 280 280 280 280 280 280 279 280 280 280 281 281 281 282 281 281 282 282 282 282 282 282 282 282 282 283 283 283 283 283 283 283 283 283 283 283 283 282 282 282 281 281 281 280 280 280 279
265 267 268 269 270 270 270 270 270 271 271 271 272 273 274 274 273 272 272 275 276 275 277 280 278 276 278 279 277 278 278 278 278 278 279 280 280 280 280 280 281 281 281 282 282 282 282 283 283 283 283 284 284 284 284 283 283 283 283 283 283 283 283 283 283 283 283 284 284 284 284 284 284 284 284 284 284 284 284 284 284 284 284 283 282 282
268 269 270 270 270 270 269 270 271 271 271 272 273 274 276 274 271 271 275 277 277 276 278 279 277 276 278 280 280 279 278 278 279 280 281 281 281 281 281 282 282 282 282 283 283 283 284 284 284 285 285 285 285 285 284 284 284 284 284 284 284 284 284 284 284 284 285 285 285 285 285 286 286 286 286 286 286 286 286 286 286 286 285 285 285 284
271 271 272 272 271 271 272 272 272 272 272 272 273 275 276 274 272 274 277 277 275 276 277 277 275 276 279 280 278 277 277 278 280 281 281 281 281 281 282 282 283 283 283 284 284 284 285 285 285 285 285 285 285 285 285 285 285 285 285 285 285 285 285 285 285 285 285 285 285 286 286 286 286 287 287 287 286 286 286 286 286 286 286 286 285 285
271 271 272 273 272 272 274 273 272 273 272 271 274 278 277 275 276 276 275 273 274 275 276 275 276 279 280 278 277 277 279 280 280 280 280 281 282 282 282 283 283 284 284 285 285 286 286 286 287 286 286 286 286 286 286 286 286 286 285 285 285 285 285 285 285 285 285 285 286 286 286 286 286 286 286 286 286 286 286 286 286 285 285 285 285 284
271 271 272 272 271 272 272 272 272 271 269 271 278 282 278 275 275 274 272 273 274 275 276 277 279 281 280 279 279 280 281 281 281 281 281 282 282 283 284 284 285 285 286 287 287 288 288 288 288 287 287 287 286 286 286 286 286 286 286 286 286 286 286 285 285 285 285 285 285 285 286 286 286 286 286 287 287 287 287 287 287 287 287 286 285 285
272 272 271 271 271 271 271 271 270 267 268 276 282 280 275 273 273 272 273 274 274 275 276 278 279 280 280 280 281 282 281 281 281 281 282 282 283 284 285 286 287 287 288 288 288 288 288 288 287 287 286 286 286 286 286 286 286 286 286 286 286 285 285 285 285 286 286 286 287 287 288 288 288 289 289 289 289 290 290 289 289 289 288 287 287 286
272 271 271 270 270 270 270 269 267 267 272 279 279 274 272 273 273 274 274 273 273 275 276 278 279 280 280 281 281 282 282 282 282 282 283 284 285 286 287 288 288 289 289 289 289 288 288 287 287 287 287 287 287 287 287 287 287 287 286 286 286 286 286 286 287 288 289 290 290 291 291 291 291 291 291 291 291 291 291 290 290 289 289 289 288 288
270 269 269 269 269 269 269 268 268 271 274 275 274 274 275 275 275 274 273 272 273 275 276 277 279 280 280 281 281 281 281 282 283 284 285 286 287 288 289 289 290 290 290 290 289 289 289 288 288 288 288 289 288 288 288 288 287 287 287 286 286 287 287 288 289 290 291 292 292 292 292 292 292 292 292 291 291 291 291 291 290 290 290 289 289 289
268 267 267 268 268 269 270 270 271 272 273 273 276 278 278 276 274 274 274 274 274 276 277 279 280 280 280 281 281 282 282 283 284 286 287 288 289 289 290 291 291 291 291 291 290 290 290 290 290 290 289 289 289 288 287 287 287 286 286 287 287 288 289 289 290 291 291 291 292 291 291 291 291 292 292 292 292 292 291 291 291 291 290 290 290 290
268 267 268 268 268 269 270 271 272 273 274 277 279 277 276 276 276 277 277 276 276 277 279 279 279 280 280 281 281 282 283 284 285 287 289 289 290 291 292 292 292 291 291 291 291 291 291 291 290 290 289 289 288 287 286 286 286 286 287 287 288 288 289 289 290 290 291 291 291 291 291 292 292 292 292 292 292 292 292 291 291 291 291 291 291 291
268 268 268 267 268 270 272 273 274 275 277 280 279 277 277 277 278 278 278 278 280 280 279 279 279 280 281 281 282 283 284 285 287 288 289 290 292 292 292 292 291 291 291 291 291 291 291 290 290 289 288 287 286 285 285 285 286 286 286 287 287 288 289 290 290 291 291 291 292 292 292 293 293 293 292 292 292 292 292 291 292 292 292 292 292 293
267 267 267 268 270 272 273 274 275 276 279 281 280 279 279 278 277 277 279 282 283 281 279 280 281 281 282 283 283 284 285 287 288 289 290 291 292 292 292 291 291 291 291 292 292 291 290 289 288 286 285 284 284 284 284 285 285 286 286 286 287 288 289 290 290 291 292 292 292 293 293 293 293 292 292 292 292 292 292 292 293 293 294 294 295 296
266 267 268 269 271 272 273 274 276 277 279 282 281 280 279 278 277 278 281 284 284 281 281 282 282 283 283 284 284 285 287 288 289 290 290 291 291 291 290 290 290 291 292 292 291 290 288 286 285 284 283 283 284 284 285 285 286 286 286 287 288 288 289 290 291 292 292 293 293 293 293 293 293 293 293 293 293 293 294 294 295 295 295 296 297 297
266 267 268 270 271 272 273 275 276 277 279 281 281 280 279 279 280 282 284 284 283 283 284 283 283 284 284 285 286 287 288 289 290 290 290 290 290 289 290 290 292 292 292 292 290 288 286 285 285 284 284 284 285 285 286 287 287 287 287 288 288 289 290 291 292 292 293 294 294 294 294 294 294 294 294 294 294 295 296 296 296 297 297 298 298 298
266 267 269 271 273 274 274 274 275 278 280 280 279 280 281 282 283 285 286 285 285 285 284 284 285 286 286 287 288 288 289 290 290 290 289 289 289 290 291 292 293 293 292 290 287 285 284 284 284 284 285 285 286 286 287 287 287 287 288 288 289 290 291 292 293 294 294 295 295 295 295 295 295 295 295 296 296 297 297 297 298 298 299 299 299 298
267 268 271 273 274 273 274 274 276 279 281 280 279 281 283 284 285 286 286 286 286 285 285 286 287 287 287 288 288 289 289 290 290 289 289 290 290 292 293 293 293 293 291 288 285 284 283 283 283 284 285 285 286 286 287 287 287 287 288 289 290 291 292 294 295 295 296 296 296 296 296 297 297 297 297 297 297 298 298 299 299 299 299 299 298 296
269 271 272 273 272 273 274 275 277 279 280 280 281 283 284 286 286 286 286 286 286 287 287 288 288 288 288 289 289 290 290 290 290 290 290 291 292 293 293 294 293 293 291 288 285 285 284 284 284 285 285 286 286 286 287 287 288 288 289 290 292 293 294 296 296 297 297 297 297 297 297 297 297 297 298 298 298 299 299 299 299 299 300 299 296 294
271 272 272 272 273 274 275 276 278 280 281 281 283 284 285 285 286 287 288 288 287 288 288 289 289 290 290 290 290 290 290 290 290 290 291 293 293 293 294 294 294 292 289 287 286 285 285 285 285 286 286 287 287 287 288 288 289 290 291 292 294 295 296 297 297 297 298 298 298 298 297 297 297 298 298 299 299 300 300 299 299 300 299 297 294 293
271 273 273 274 274 275 276 278 281 282 282 283 284 284 284 285 287 288 287 287 287 288 289 289 290 290 289 289 289 289 289 290 290 291 293 293 293 293 293 293 291 289 286 284 284 284 284 285 285 286 286 287 287 288 289 290 291 292 293 294 295 296 297 298 298 298 298 298 298 297 297 297 297 298 298 299 299 300 299 299 300 300 298 294 293 296
272 272 273 275 276 277 278 280 282 283 283 283 283 284 285 287 288 287 285 285 286 287 288 288 287 287 287 287 288 288 289 290 292 293 293 292 292 292 292 291 289 286 283 282 282 283 283 284 285 285 286 287 288 289 290 291 293 294 294 295 296 297 297 298 298 298 298 298 297 297 297 297 297 297 298 298 299 300 300 300 300 299 296 295 296 298
272 273 275 277 278 278 279 282 283 282 281 281 282 284 286 286 286 285 284 285 285 286 285 285 285 285 285 286 287 288 290 291 292 292 290 290 290 290 290 289 286 284 283 283 283 284 284 285 285 286 287 288 289 290 291 293 294 294 295 296 297 297 297 298 298 298 298 297 297 296 296 296 297 297 298 299 299 300 300 301 300 296 294 296 299 300
273 276 278 279 278 278 280 282 282 280 279 280 282 284 284 284 283 283 283 284 284 285 284 284 284 284 286 287 288 288 289 290 290 289 288 288 289 289 289 288 286 285 285 285 285 286 286 286 287 287 288 289 290 291 293 293 294 295 295 296 297 297 298 298 298 298 297 296 296 296 296 296 296 297 298 299 299 299 301 301 299 296 295 297 300 302
276 278 279 279 279 281 282 282 281 280 280 282 283 282 282 282 282 282 283 283 284 284 284 284 285 286 287 288 288 288 289 289 288 287 288 289 290 290 289 288 288 288 288 287 287 287 287 287 288 288 289 290 291 292 293 294 294 295 296 297 297 298 298 298 298 297 296 296 296 295 295 296 296 297 299 300 299 300 300 298 296 297 300 300 300 303